« Back
NWS Peachtree City, Ga » Text Product » GA Regional Weather Roundup


Printer-friendly Version
Current Version              Previous Versions:   1  2  3  4  5  6  7  8  9  

Regional Weather Roundup

926
ASUS42 KFFC 250003
RWRGA
WEATHER ROUNDUP FOR GEORGIA
NATIONAL WEATHER SERVICE PEACHTREE CITY GA
800 PM EDT FRI OCT 24 2014

NOTE: "FAIR" INDICATES FEW OR NO CLOUDS BELOW 12,000 FEET WITH NO
SIGNIFICANT WEATHER AND/OR OBSTRUCTIONS TO VISIBILITY.

* = USE WITH CAUTION. THE STATIONS MARKED WITH AN ASTERISK MAY NOT
REPORT WEATHER SUCH AS PRECIPITATION, FOG, OR THUNDER AND ARE NOT
QUALITY CONTROLLED BY NWS.

THE REMARK "TC" DENOTES TEMPERATURE READING IN DEGREES CELSIUS.

GAZ001>058-250100-
NORTH GEORGIA

CITY           SKY/WX    TMP DP  RH WIND       PRES   REMARKS
ATLANTA        CLEAR     64  42  44 NW8       30.02R
6HR MIN TEMP:  64; 6HR MAX TEMP:  74;

ATHENS         CLEAR     55  49  80 CALM      30.00R
6HR MIN TEMP:  55; 6HR MAX TEMP:  73;

CHAMBLEE       CLEAR     60  42  51 W3        30.02R
6HR MIN TEMP:  60; 6HR MAX TEMP:  73;

PEACHTREE CITY CLEAR     55  52  89 CALM      30.03R
6HR MIN TEMP:  55; 6HR MAX TEMP:  74;

ROME           CLEAR     58  43  57 CALM      30.02S
6HR MIN TEMP:  56; 6HR MAX TEMP:  74;

WEST ATLANTA   CLEAR     58  48  69 CALM      30.03R
6HR MIN TEMP:  58; 6HR MAX TEMP:  73;

GAINESVILLE    MOCLDY    60  46  59 W7        30.03R
6HR MIN TEMP:  59; 6HR MAX TEMP:  70;

CARTERSVILLE   CLEAR     52  45  77 CALM      30.03R
6HR MIN TEMP:  52; 6HR MAX TEMP:  73;



CITY           SKY/WX    TMP DP  RH WIND       PRES   REMARKS
DALTON*        CLEAR     54  48  82 CALM      30.04R
LAWRENCEVILLE* CLEAR     61  39  44 CALM      30.01R
MARIETTA       CLEAR     61  42  50 NW3       30.03R
KENNESAW*      CLEAR     63  39  42 NW7       30.05R
$$

GAZ059>098-102>109-250100-
CENTRAL GEORGIA

CITY           SKY/WX    TMP DP  RH WIND       PRES   REMARKS
AUGUSTA-BUSH   PTCLDY    57  45  64 CALM      29.99R
6HR MIN TEMP:  57; 6HR MAX TEMP:  76;

AUGUSTA-DANIEL PTCLDY    66  43  43 N5        30.00R
6HR MIN TEMP:  66; 6HR MAX TEMP:  75;

COLUMBUS       CLEAR     64  48  56 CALM      30.01R
6HR MIN TEMP:  63; 6HR MAX TEMP:  75;

MACON          CLEAR     55  51  86 CALM      30.00R
6HR MIN TEMP:  55; 6HR MAX TEMP:  76;

ROBINS AFB     CLEAR     58  53  84 CALM      29.99R


CITY           SKY/WX    TMP DP  RH WIND       PRES   REMARKS
LAGRANGE*      CLEAR     58  53  83 CALM      30.02R
SYLVANIA*      CLEAR     64  58  82 CALM      30.00R
MILLEDGEVILLE* CLEAR     57  54  88 CALM      30.00S
$$

GAZ099>101-110>166-250100-
SOUTH GEORGIA

CITY           SKY/WX    TMP DP  RH WIND       PRES   REMARKS
SAVANNAH       PTCLDY    62  50  64 CALM      29.99S
6HR MIN TEMP:  62; 6HR MAX TEMP:  77;

VALDOSTA       CLEAR     57  47  69 CALM      29.99R
6HR MIN TEMP:  57; 6HR MAX TEMP:  77;

ALMA           CLEAR     56  50  80 CALM      29.99R
6HR MIN TEMP:  56; 6HR MAX TEMP:  76;

ST SIMONS      CLEAR     60  52  74 CALM      30.00R
6HR MIN TEMP:  60; 6HR MAX TEMP:  72;

FT STEWART     CLEAR     58  52  79 CALM      29.98S
ALBANY         CLEAR     61  52  72 CALM      30.01R
HUNTER AFB     CLEAR     58  52  79 SE1       29.97S
MOODY AFB      CLEAR     61  49  64 CALM      29.99S
BRUNSWICK      CLEAR     57  52  82 CALM      30.00S


CITY           SKY/WX    TMP DP  RH WIND       PRES   REMARKS
BAINBRIDGE*    CLEAR     64  52  63 CALM      30.00R
MOULTRIE*      CLEAR     63  54  72 CALM      30.00S
VIDALIA*       CLEAR     61  50  67 CALM      30.00R
WAYCROSS*      CLEAR     61  55  79 CALM      29.99S
DOUGLAS*       CLEAR     63  46  55 CALM      30.00S
$$



USA.gov is the U.S. government's official web portal to all federal, state and local government web resources and services.